Location: Shepherdstown, WV
(39.4326°N, 77.8042°W)
Time: 02:40:53
(UTC-04:00)

Vanguard 1 - Pass Details

Date: 28 September 2021
Orbit: 653 x 3829 km, 34.2° (Epoch: 18 October)

Event Time Altitude Azimuth Distance (km) Brightness Sun altitude
Rises 22:24:07 0° 271° (W) 6,327 14.8 -38.6°
Reaches altitude 10° 22:27:41 10° 270° (W) 5,644 14.4 -39.1°
Maximum altitude 22:46:54 73° 190° (S) 3,822 12.6 -42.0°
Enters shadow 22:50:25 67° 146° (SSE) 3,984 12.6 -42.5°
